User: anonymous   Login
Location: Cincinnati Observatory Center
(39.1389°N, 84.4225°W)
Time: 15:00:56
(UTC-04:00)
Language:

COSMOS 2428 - Orbit

View from above orbital plane
View from above orbital plane
View from above satellite
View from above satellite

Ground track
Ground track

The orbit data is extracted from the following two-line orbital elements,

1 31792U 07029A   15185.46383512  .00000137  00000-0  10000-3 0  9997
2 31792 070.9814 109.0018 0010417 268.4536 210.8431 14.12536795413290
Epoch (UTC): 04 July 2015 11:07:55
Eccentricity: 0.0010417
inclination: 70.9814°
perigee height: 843 km
apogee height: 858 km
right ascension of ascending node: 109.0018°
argument of perigee: 268.4536°
revolutions per day: 14.12536795
mean anomaly at epoch: 210.8431°
orbit number at epoch: 41329

The dashed part of the orbit path shows where the satellite is in the earth's shadow,  

DLR